Escondido, California, United States (92025)
Lat: 33.12N, Lon: 117.09W
Wx Zone: CAZ050
Local Info
Past Weather Observations for Yesterday

NOTE: This archive is for the closest National Weather Service station to Escondido. Information may differ from the station used for current weather conditions.

Click here for Long-term Archive

Time Weather Temperature Dewpoint Humidity Pressure Winds Precip Visibility
23:53
Clear
73°F / 23°C 64°F / 18°C 74% 30.04 in
(1017 mb)
Calm - 10SM
22:53
Clear
72°F / 22°C 64°F / 18°C 78% 30.04 in
(1017 mb)
Calm - 10SM
21:53
Clear
72°F / 22°C 64°F / 18°C 78% 30.04 in
(1017 mb)
SW 4.6 mph
(SW 7 kph)
- 10SM
20:53
Clear
72°F / 22°C 63°F / 17°C 73% 30.04 in
(1017 mb)
W 4.6 mph
(W 7 kph)
- 10SM
19:53
Clear
72°F / 22°C 63°F / 17°C 73% 30.04 in
(1017 mb)
Calm - 10SM
18:53
Clear
73°F / 23°C 64°F / 18°C 74% 30.01 in
(1016 mb)
W 5.8 mph
(W 9 kph)
- 10SM
17:53
Clear
75°F / 24°C 64°F / 18°C 69% 29.98 in
(1015 mb)
Variable 4.6 mph
(Variable 7 kph)
- 10SM
16:53
Clear
77°F / 25°C 61°F / 16°C 57% 29.98 in
(1015 mb)
SSW 8.1 mph
(SSW 13 kph)
- 10SM
15:53
Clear
77°F / 25°C 63°F / 17°C 61% 29.98 in
(1015 mb)
Variable 5.8 mph
(Variable 9 kph)
- 10SM
14:53
Clear
79°F / 26°C 66°F / 19°C 65% 30.01 in
(1016 mb)
SSW 9.2 mph
(SSW 15 kph)
- 10SM
13:53
Clear
81°F / 27°C 61°F / 16°C 51% 30.01 in
(1016 mb)
SSW 8.1 mph
(SSW 13 kph)
- 10SM
12:53
Clear
81°F / 27°C 59°F / 15°C 48% 30.04 in
(1017 mb)
SSW 11.5 mph
(SSW 19 kph)
- 10SM
11:53
Clear
82°F / 28°C 54°F / 12°C 37% 30.04 in
(1017 mb)
SSW 5.8 mph
(SSW 9 kph)
- 10SM
10:53
Clear
79°F / 26°C 63°F / 17°C 58% 30.06 in
(1018 mb)
SSW 8.1 mph
(SSW 13 kph)
- 10SM
09:53
Clear
75°F / 24°C 64°F / 18°C 69% 30.06 in
(1018 mb)
SSW 6.9 mph
(SSW 11 kph)
- 10SM
08:53
Clear
75°F / 24°C 64°F / 18°C 69% 30.06 in
(1018 mb)
SSW 5.8 mph
(SSW 9 kph)
- 10SM
07:53
Clear
73°F / 23°C 66°F / 19°C 78% 30.06 in
(1018 mb)
Variable 3.5 mph
(Variable 6 kph)
- 10SM
06:53
Clear
72°F / 22°C 66°F / 19°C 83% 30.04 in
(1017 mb)
Calm - 10SM
05:53
Clear
70°F / 21°C 66°F / 19°C 88% 30.04 in
(1017 mb)
Calm - 9SM
04:53
Clear
70°F / 21°C 66°F / 19°C 88% 30.04 in
(1017 mb)
Calm - 9SM
03:53
Partly Cloudy
70°F / 21°C 66°F / 19°C 88% 30.04 in
(1017 mb)
Calm - 10SM
03:28
Mostly Cloudy
70°F / 21°C 66°F / 19°C 88% 30.04 in
(1017 mb)
Calm - 10SM
02:53
Mostly Cloudy
70°F / 21°C 66°F / 19°C 88% 30.04 in
(1017 mb)
Calm - 10SM
02:30
Mostly Cloudy
70°F / 21°C 66°F / 19°C 88% 30.04 in
(1017 mb)
Calm - 10SM
01:53
Mostly Cloudy
70°F / 21°C 66°F / 19°C 88% 30.04 in
(1017 mb)
SSW 3.5 mph
(SSW 6 kph)
- 8SM
01:41
Mostly Cloudy
72°F / 22°C 66°F / 19°C 83% 30.04 in
(1017 mb)
SSW 3.5 mph
(SSW 6 kph)
- 8SM
01:14
Partly Cloudy
72°F / 22°C 66°F / 19°C 83% 30.04 in
(1017 mb)
Calm - 9SM
00:53
Overcast
72°F / 22°C 66°F / 19°C 83% 30.04 in
(1017 mb)
SSW 3.5 mph
(SSW 6 kph)
- 8SM
00:29
Mostly Cloudy
72°F / 22°C 66°F / 19°C 83% 30.04 in
(1017 mb)
SW 3.5 mph
(SW 6 kph)
- 8SM
00:20
Partly Cloudy
72°F / 22°C 66°F / 19°C 83% 30.04 in
(1017 mb)
SW 3.5 mph
(SW 6 kph)
- 8SM
Time Weather Temperature Dewpoint Humidity Pressure Winds Precip Visibility


Weather for websites

WeatherForYou.com, LLC is not responsible for any damages or problems caused by this service. Current weather conditions are obtained from the closest station including government and personal stations which may have varying degrees of accuracy. Weather forecasts are derived from the NOAA NDFD. Like all things, this site belongs to Jesus Christ... He just trusts me to maintain it. If you have any questions or comments email webmaster@weatherforyou.com

Copyright © 2014, WeatherForYou.com LLC. All rights reserved.